Miscellaneous Local Product
Issued by NWS Hastings, NE

Home | Current Version | Previous Version | Graphics & Text | Print | Product List | Glossary On
Versions: 1 2 3 4 5 6 7 8 9 10 11 12 13 14 15 16 17 18 19 20 21 22 23 24 25 26 27 28 29 30 31 32 33 34 35 36 37 38 39 40 41 42 43 44 45 46 47 48 49 50
000
AXUS43 KGID 250002
MISGRI

GID CWA HOURLY WEATHER ROUNDUP
NATIONAL WEATHER SERVICE HASTINGS NE
600 PM CST FRI FEB 24 2017

NOTE: "FAIR" INDICATES FEW OR NO CLOUDS BELOW 12,000 FEET WITH NO
SIGNIFICANT WEATHER AND/OR OBSTRUCTIONS TO VISIBILITY.

...SOUTH CENTRAL NEBRASKA...

CITY           SKY/WX    TMP DP  RH WIND       PRES   REMARKS
GRAND ISLAND   CLEAR     23  16  74 N24G33    30.05R WCI   7
HASTINGS       PTCLDY    24  16  71 N23G30    30.06R WCI   9
KEARNEY        CLEAR     23  12  63 N17G25    30.06R WCI   9
ORD            CLOUDY    23  13  65 NW21      30.05R WCI   8
YORK           PTCLDY    25  19  80 N18G24    30.02R WCI  11
AURORA         CLEAR     24  17  77 N18G25    30.04R WCI  10
LEXINGTON      CLOUDY    23  15  69 N17       30.08R WCI  10
HOLDREGE       MOCLDY    23  15  72 N14       30.07R WCI  10
HEBRON         CLOUDY    25  18  72 N15G23    30.05R WCI  13

...NEBRASKA PANHANDLE...

CITY           SKY/WX    TMP DP  RH WIND       PRES   REMARKS
CHADRON        CLOUDY    19  13  77 CALM      30.08S
ALLIANCE       CLOUDY    18  13  80 NW5       30.03S WCI  11
SCOTTSBLUFF    CLOUDY    24  16  71 CALM      30.05R
SIDNEY         CLOUDY    21  13  71 NW7       30.03R WCI  12

...WESTERN AND NORTH CENTRAL NEBRASKA...

CITY           SKY/WX    TMP DP  RH WIND       PRES   REMARKS
VALENTINE      CLOUDY    19  11  70 W9        30.09R WCI   8
AINSWORTH      CLOUDY    22  15  75 NW13      30.08R WCI  10
ONEILL         CLOUDY    25  18  74 NW17      30.05R WCI  11
BROKEN BOW     PTCLDY    21  15  78 N17       30.06R WCI   7
IMPERIAL       CLOUDY    23  15  71 N9        30.07R WCI  13
NORTH PLATTE   MOCLDY    23  11  60 NW10      30.08R WCI  12
MCCOOK         PTCLDY    25  16  68 N12       30.08R WCI  14

...EASTERN NEBRASKA...

CITY           SKY/WX    TMP DP  RH WIND       PRES   REMARKS
NORFOLK        PTCLDY    25  15  66 NW17G24   29.99R WCI  12
SO SIOUX CITY  CLEAR     27  17  66 N22G29    29.96R WCI  13
TEKAMAH        CLOUDY    24  15  68 NW15      29.97R WCI  11
COLUMBUS       PTCLDY    25  16  68 NW20      30.02R WCI  11
ALBION         CLOUDY    25  17  69 NW21G30   30.02R WCI  11
OMAHA EPPLEY   CLOUDY    26  16  65 NW20      29.96R WCI  12
OFFUTT AFB     CLOUDY    27  16  63 NW16G22   29.95R WCI  14
MILLARD        CLOUDY    28  19  66 NW15G22   29.98R WCI  17
LINCOLN        FLURRIES  27  18  69 NW18      30.02R WCI  14
NEBRASKA CITY  LGT SNOW  24  21  87 N18G24    29.96R WCI  10
BEATRICE       CLOUDY    26  19  73 N23G31    30.01R WCI  11
FALLS CITY     LGT SNOW  26  22  84 NW18      29.95R FOG     WCI  13

...NORTHERN KANSAS...

CITY           SKY/WX    TMP DP  RH WIND       PRES   REMARKS
GOODLAND       CLOUDY    28  19  69 N12       30.03R WCI  18
HILL CITY      CLOUDY    29  15  56 N16       30.08R WCI  17
PHILLIPSBURG   MOCLDY    28  16  59 N15G22    30.09R WCI  17
SMITH CENTER   PTCLDY    25  16  68 NW18      30.09R WCI  11
HAYS           PTCLDY    30  17  58 N21       30.08R WCI  17
RUSSELL        CLOUDY    28  16  60 N18G28    30.06R WCI  15
CONCORDIA      CLOUDY    26  18  71 NW14G26   30.05R WCI  14
SALINA         CLOUDY    30  17  58 NW24      30.06R WCI  16
TOPEKA         CLOUDY    29  22  75 NW25G32   29.97R WCI  14



USA.gov is the U.S. government's official web portal to all federal, state and local government web resources and services.